Theta_e
310 310 310 310 310 310 310 309 308 308 308 308 309 312 312 313 313 314 314 315 317 316 314 316 316 316 316 317 318 317 315 316 319 320 319 315 316 314 312 314 314 313 313 312 311
310 310 310 310 311 311 311 310 310 309 308 308 307 309 312 312 313 315 315 315 315 313 315 315 315 314 314 318 317 317 317 319 319 317 317 315 314 313 314 313 313 313 308 310 309
311 310 310 310 310 310 310 310 310 309 309 308 307 307 312 312 319 317 317 316 314 313 315 315 316 316 316 317 317 316 315 317 318 317 315 316 315 313 312 312 310 311 309 307 305
312 311 311 310 310 310 310 310 310 309 309 308 307 307 311 315 309 317 315 314 312 312 314 315 315 317 316 317 317 319 316 317 317 316 316 315 313 315 311 313 312 309 309 307 305
313 312 311 311 310 310 310 310 310 309 308 307 307 307 312 317 315 315 313 312 311 313 314 314 315 316 317 318 318 318 316 316 315 314 314 314 313 313 312 310 309 309 308 307 306
311 310 310 309 311 311 311 310 310 309 308 307 306 307 312 313 313 315 313 311 311 312 313 313 314 314 315 316 316 315 315 314 313 314 313 315 313 314 312 311 310 310 308 306 306
314 313 313 311 306 307 310 311 311 310 309 307 306 310 317 311 313 313 312 311 312 312 312 313 314 314 315 317 315 314 315 312 313 313 314 313 313 313 313 312 311 310 309 307 306
314 314 314 313 309 306 305 305 308 309 308 307 309 314 310 313 312 312 311 311 311 311 312 313 313 313 315 314 313 314 314 314 313 313 314 313 314 312 311 309 310 309 307 307 306
314 314 314 313 312 310 307 306 305 305 307 309 312 317 313 313 312 313 312 311 310 311 311 311 313 312 314 311 311 312 311 313 314 313 312 312 314 312 310 309 310 308 307 307 307
315 315 314 314 313 310 308 307 306 308 314 314 317 314 312 312 314 312 311 311 311 311 311 311 311 310 311 310 311 311 313 313 313 313 313 312 313 312 310 311 309 307 305 306 309
316 315 315 314 314 311 311 309 308 311 315 310 311 311 313 313 313 311 310 311 311 312 310 311 310 311 311 312 311 311 311 311 313 313 314 315 313 313 312 309 308 310 310 310 309
317 316 316 315 314 313 312 311 310 310 307 308 306 311 313 313 313 312 310 310 310 311 311 313 312 311 311 311 312 311 312 312 312 310 311 311 313 312 311 312 312 310 311 311 311
318 317 316 317 314 314 313 310 308 311 311 310 308 307 308 313 312 312 308 309 310 311 311 312 312 313 313 313 313 312 312 312 312 312 310 310 311 312 311 311 312 312 311 311 311
320 318 317 317 315 314 312 310 309 310 306 309 308 311 310 311 309 308 309 310 310 311 310 311 312 312 312 312 312 313 311 311 312 312 313 310 314 311 311 311 310 311 311 309 305
322 320 318 316 315 313 313 310 308 309 307 310 309 310 310 307 307 308 306 309 310 311 310 311 312 310 312 312 310 313 312 312 313 313 313 314 314 314 310 310 310 311 310 309 306
323 322 319 316 314 317 314 308 310 305 308 310 309 310 310 310 309 307 307 306 307 309 308 308 309 311 311 310 310 310 311 311 310 309 314 312 313 312 309 311 310 310 309 309 306
323 322 319 318 315 314 309 311 312 308 308 312 310 310 310 311 310 307 307 307 307 309 307 308 309 308 309 311 309 310 311 312 312 312 315 309 311 313 311 309 309 310 309 308 304
320 321 319 319 317 313 310 314 321 319 311 311 311 310 311 311 311 309 309 308 305 308 309 310 310 308 308 310 310 309 311 313 310 313 314 308 311 311 310 309 308 307 308 305 305
317 318 316 320 316 314 313 318 325 321 320 320 322 313 311 311 309 310 307 308 307 306 309 310 310 309 308 309 310 310 311 310 313 297 309 313 310 310 309 308 307 306 305 305 304
314 317 316 318 316 311 313 323 321 319 321 320 324 323 323 315 310 312 310 309 310 307 309 310 311 310 307 307 307 309 308 312 311 311 309 313 310 312 311 312 311 306 304 304 304
313 316 316 316 312 312 315 316 316 316 317 321 322 324 322 323 321 315 312 311 310 309 309 309 311 312 305 307 309 307 309 309 310 311 315 314 313 307 309 310 310 306 304 303 303
312 316 313 313 315 314 318 316 314 316 315 318 312 318 320 320 321 321 322 318 310 310 313 311 312 314 311 307 306 308 310 310 312 313 310 312 313 312 308 306 307 306 305 305 305
312 313 310 312 318 318 312 314 314 315 316 316 317 316 317 318 318 317 317 314 315 315 315 314 313 318 316 312 306 308 307 308 309 310 313 315 315 312 311 310 306 304 303 304 304
306 311 310 309 313 316 316 316 316 312 314 314 316 315 317 317 317 319 318 315 313 314 313 313 313 316 319 316 313 313 311 309 311 313 314 314 313 311 311 311 310 310 310 310 310
301 305 307 309 312 313 314 314 315 316 314 313 315 315 316 318 318 318 316 316 314 312 313 314 314 314 315 315 315 315 315 314 314 313 316 315 314 312 310 310 310 309 309 309 308
300 301 302 302 304 308 311 312 313 313 312 313 314 314 314 316 316 316 314 314 315 311 313 312 316 316 316 314 314 315 314 314 314 314 314 313 314 314 313 313 313 312 311 310 308
297 299 300 299 299 301 302 305 307 306 305 306 305 305 305 306 307 304 305 306 308 314 315 314 313 316 318 315 314 315 315 315 314 313 313 314 312 312 312 312 313 312 311 310 310
Wind_Speed
14 14 13 13 13 13 13 13 14 14 14 13 13 10 8 8 10 7 6 7 6 6 4 4 4 4 3 2 1 2 2 4 5 2 2 3 4 2 3 2 2 5 3 3 21
12 13 14 13 12 13 13 13 13 13 13 14 14 13 9 7 7 12 12 9 9 6 9 9 4 7 1 3 2 3 3 6 3 3 3 3 5 7 2 3 4 4 1 15 33
13 13 13 13 14 14 14 14 14 14 14 14 14 13 9 7 3 6 6 16 10 8 7 5 3 6 3 3 4 5 6 4 4 3 3 2 2 5 7 7 8 11 9 13 18
15 15 15 14 13 13 14 14 14 15 14 15 15 13 7 2 5 3 3 11 11 9 7 5 2 4 3 5 6 4 8 8 7 3 1 2 5 5 8 12 8 12 10 15 15
17 18 18 17 16 15 14 14 14 15 15 14 15 12 4 1 9 7 5 10 11 10 8 5 4 4 4 4 3 5 5 7 7 7 6 2 9 7 12 10 11 9 8 17 15
20 22 24 22 20 19 17 17 16 16 16 16 15 9 2 5 7 6 8 11 11 12 8 7 6 6 5 5 3 3 4 7 7 10 6 7 5 4 9 9 14 11 11 12 18
19 22 25 22 20 22 22 20 19 19 19 18 13 5 3 13 7 7 9 11 12 9 4 9 4 4 1 4 2 3 8 8 12 9 7 6 10 14 24 4 9 12 12 11 16
18 21 25 25 18 19 21 22 21 21 20 17 6 6 7 7 9 10 12 8 10 10 6 4 4 2 3 2 5 2 2 5 6 7 4 9 15 10 13 9 16 14 11 10 14
17 19 21 25 23 21 21 21 19 18 15 8 5 4 8 4 6 12 12 6 7 5 4 4 5 5 0 4 5 3 6 8 10 8 6 6 11 11 9 9 14 11 12 12 13
16 18 20 24 26 26 20 16 13 7 2 4 2 2 4 5 6 11 13 11 3 6 3 3 2 3 1 5 9 7 6 6 9 4 4 6 18 14 10 5 11 10 10 12 17
15 17 18 22 26 22 22 5 5 3 2 8 5 5 3 1 5 5 6 8 4 2 7 5 4 10 22 17 6 5 6 8 18 10 10 17 18 20 20 10 12 17 18 18 18
14 15 16 21 24 13 9 4 3 1 7 10 13 9 15 8 4 5 11 7 6 8 5 3 11 18 3 9 9 11 14 15 15 11 10 15 21 17 12 14 16 16 19 21 18
15 15 15 18 17 9 9 4 6 0 2 8 8 7 7 16 9 9 14 5 7 6 9 18 10 17 12 9 10 19 14 18 18 10 6 9 10 13 11 12 15 17 20 21 17
16 15 14 16 2 15 2 9 4 1 3 7 5 4 2 4 5 0 16 8 6 13 9 11 12 12 7 7 12 21 10 13 12 3 13 4 14 9 7 13 11 17 19 17 11
18 14 13 9 9 4 5 11 4 1 6 5 3 2 1 6 3 1 2 1 6 5 6 10 4 8 12 24 11 19 3 5 2 5 5 6 7 4 9 9 11 16 18 19 12
12 15 13 7 8 6 7 6 1 4 8 5 3 4 4 0 1 2 3 3 1 2 6 10 1 4 8 2 6 3 1 0 3 3 12 8 9 4 7 11 6 14 14 14 11
12 9 17 12 3 3 3 2 3 5 6 4 4 4 1 4 3 5 5 5 6 1 5 2 13 7 6 4 2 2 5 4 4 1 13 12 11 22 7 7 11 12 13 16 7
12 10 12 12 18 8 8 3 8 6 8 2 3 3 7 7 6 5 3 3 6 1 3 3 14 13 8 18 11 10 10 7 7 11 22 3 8 6 12 13 11 14 14 6 9
10 8 6 15 21 16 2 3 8 7 7 4 8 5 5 6 8 8 9 7 10 17 11 7 11 1 2 2 8 4 6 9 1 2 2 11 13 8 4 10 10 15 4 8 9
5 4 8 14 24 16 2 15 7 6 4 3 7 8 10 5 2 2 6 4 6 15 18 6 11 8 4 4 1 6 2 2 2 3 7 17 4 15 14 22 20 6 10 8 6
4 3 6 19 24 2 6 8 4 5 5 7 15 15 11 11 10 8 7 14 4 4 3 7 7 19 5 6 9 1 4 4 2 5 14 18 15 6 5 3 3 7 8 8 8
3 4 18 32 4 3 10 5 6 12 5 7 4 8 13 13 15 17 18 19 8 4 3 4 4 5 9 6 4 4 8 11 10 11 5 7 15 22 12 9 5 9 6 6 7
3 3 20 8 7 10 4 7 5 13 12 4 6 9 12 15 10 15 13 12 15 13 4 5 4 5 9 13 4 7 6 7 6 2 13 15 15 23 22 23 10 7 9 9 9
3 3 2 2 4 14 16 18 17 10 17 12 14 9 10 14 17 14 19 10 11 16 14 11 9 12 17 17 10 10 11 11 15 14 24 21 30 28 34 29 25 21 25 25 23
2 4 2 4 9 12 12 10 19 20 11 10 8 26 25 24 24 25 25 26 18 10 9 11 12 19 26 30 29 29 29 28 26 23 19 26 22 26 32 22 26 24 25 23 19
3 2 4 5 6 3 8 14 18 19 16 24 18 18 17 19 22 25 22 19 21 5 16 9 15 17 23 26 29 31 31 28 30 31 27 32 32 35 35 33 32 32 24 20 19
4 1 0 4 2 2 8 10 10 4 5 3 10 10 12 16 12 20 21 19 20 17 17 12 8 13 28 22 24 24 34 35 32 27 23 28 35 36 32 27 29 31 23 21 22
Wind_Direction
6 6 7 8 7 7 8 7 6 5 3 3 3 356 333 305 277 273 239 237 203 214 164 138 170 201 238 260 216 59 49 259 261 269 216 187 156 316 146 158 205 210 186 232 166
354 353 354 355 353 353 354 355 355 355 352 351 352 349 339 324 283 250 254 238 212 194 164 177 191 194 265 233 193 124 158 236 231 286 282 199 180 181 176 232 235 223 50 149 158
344 342 341 340 341 344 344 344 343 343 343 340 342 340 333 329 310 246 261 215 223 201 178 194 219 166 201 169 208 202 213 220 281 309 21 284 248 199 182 235 210 212 193 171 168
338 336 335 333 329 330 331 332 334 333 334 333 333 330 322 324 276 224 223 197 201 194 180 174 202 160 221 223 209 227 245 251 276 250 226 260 297 265 207 234 212 224 197 176 182
330 332 328 325 323 319 319 321 323 323 324 325 325 321 303 255 248 235 210 185 192 186 189 183 177 192 228 245 273 224 259 271 266 262 228 216 253 247 263 264 252 249 166 186 199
344 335 330 323 317 315 313 313 313 313 314 317 318 307 206 237 243 232 203 189 192 190 202 192 199 187 251 243 209 240 252 265 263 253 232 197 257 158 260 229 246 240 234 200 202
339 343 347 335 325 314 309 307 309 309 308 310 308 243 226 239 231 220 207 210 204 201 210 216 181 166 273 286 301 281 314 310 259 243 222 124 283 225 248 254 250 246 235 218 217
333 338 344 351 339 328 315 307 304 301 302 302 284 177 240 219 213 213 198 208 204 218 225 182 177 195 207 278 333 237 193 285 273 131 201 133 261 246 249 196 235 240 239 231 228
325 333 341 350 348 338 322 317 304 289 290 284 165 184 261 169 202 219 207 181 172 171 177 155 141 194 182 124 340 263 238 216 297 189 142 174 254 269 262 200 241 234 237 238 247
317 325 336 344 348 339 328 318 304 300 148 150 288 13 260 228 176 183 190 184 156 137 104 158 159 185 214 126 228 213 224 242 237 200 163 199 245 260 265 262 240 249 239 239 243
315 321 330 337 343 342 343 358 9 17 223 197 191 224 146 178 169 184 175 165 120 142 190 210 148 208 225 202 224 237 256 238 268 259 205 240 240 251 254 251 241 254 258 254 245
309 315 326 334 342 357 353 37 55 292 306 268 255 236 237 191 232 221 168 167 170 209 171 252 218 227 219 208 227 248 259 264 278 270 198 251 252 254 240 247 244 230 250 253 251
301 306 318 332 339 356 351 32 333 203 242 280 222 211 228 179 225 208 157 180 195 199 206 221 222 219 225 239 261 248 248 258 255 291 238 283 267 251 245 246 250 254 248 257 251
293 298 307 326 13 341 340 346 357 127 303 264 227 216 98 135 270 101 185 174 216 222 206 247 233 221 194 211 208 262 224 256 270 281 274 136 290 220 239 236 238 245 254 249 235
278 286 288 305 310 331 318 330 340 95 301 259 197 15 36 168 115 13 32 43 216 201 146 233 213 207 226 233 197 263 210 246 229 241 315 176 283 209 192 235 243 244 250 257 239
276 266 261 264 256 263 320 323 319 34 257 282 125 174 135 235 39 40 70 26 163 300 249 249 316 229 209 157 190 130 124 2 27 59 264 180 210 180 193 218 230 244 250 247 241
271 279 244 214 237 200 56 22 322 207 299 229 236 153 303 197 225 187 166 169 186 219 240 262 222 207 149 194 313 154 85 304 314 357 258 183 220 254 284 230 214 225 237 239 169
286 260 244 239 218 187 90 56 224 194 226 350 41 133 188 167 232 186 177 257 258 268 312 258 285 154 189 204 190 196 184 176 215 264 278 120 249 252 226 236 226 224 225 194 174
318 265 215 244 210 200 128 182 223 187 228 5 347 297 235 241 215 155 202 204 210 187 198 207 260 11 171 106 148 176 176 215 340 95 334 262 272 291 292 276 273 247 219 199 200
296 224 200 251 197 141 192 238 227 198 353 345 261 201 259 286 262 239 190 199 230 190 210 240 269 207 156 128 2 174 170 87 246 211 243 270 258 270 284 280 280 244 216 207 199
244 255 192 187 150 159 226 233 258 217 230 239 252 242 246 272 272 279 269 313 331 5 254 352 281 271 109 196 180 128 254 230 262 193 247 262 273 220 193 236 308 245 221 218 214
229 236 163 156 166 203 237 214 211 251 245 262 266 243 256 262 263 253 242 221 169 134 280 152 307 292 258 260 240 198 214 211 238 257 231 267 266 270 313 325 330 304 264 213 204
242 217 177 187 222 224 225 256 243 259 237 223 246 231 229 246 260 244 247 253 259 268 198 150 208 250 293 288 219 206 209 219 243 224 246 263 264 274 281 284 287 274 273 281 278
293 252 175 227 237 242 248 250 251 233 253 241 255 254 255 253 252 258 254 245 222 239 189 159 199 213 241 239 273 272 269 260 251 252 255 245 259 265 263 257 267 264 255 264 273
247 254 236 223 237 233 243 266 261 263 234 231 227 232 244 258 248 246 251 260 259 230 182 188 234 218 229 242 252 250 255 247 243 240 240 253 249 256 261 274 263 264 266 266 270
289 313 1 315 317 309 238 243 262 273 276 270 261 285 297 269 272 272 283 254 241 203 215 201 236 228 239 231 235 244 248 250 250 248 252 252 256 250 261 264 271 269 277 280 276
275 42 325 269 293 284 258 272 283 320 244 2 337 316 297 291 305 304 291 278 281 290 259 220 221 232 248 231 235 241 233 237 242 245 245 245 239 245 260 259 261 271 276 274 274